Location: Houston
(29.7631°N, 95.3631°W)
Time: 00:11:32
(UTC-06:00)

DX 1 - Pass Details

Date: 15 November 2019
Orbit: 618 x 632 km, 98.4° (Epoch: 05 December)

Event Time Altitude Azimuth Distance (km) Brightness Sun altitude
Rises 18:15:48 0° 345° (NNW) 2,895 ? -11.1°
Reaches altitude 10° 18:19:24 10° 313° (NW) 1,986 ? -11.9°
Maximum altitude 18:20:53 12° 293° (WNW) 1,875 ? -12.2°
Drops below altitude 10° 18:22:23 10° 272° (W) 1,984 ? -12.5°
Sets 18:25:59 0° 240° (WSW) 2,887 ? -13.3°
